M I D A S
Marine Information and Data Acquisition System
Tripno 1636 of the Zeeleeuw from 2009-01-29 07:42:15 to 2009-01-29 15:35:18
Back to CruiseResearch ActivitiesStationsMapUnderway DataData graphs

EquipmentUnitsComments
TimeDGPSUTC
LatitudeDGPSDM.mWGS84
LongitudeDGPSDM.mWGS84
SpeedMeteo Stationm/sRelative wind speed
DirectionMeteo StationdegRelative wind direction
TemperatureMeteo Stationdeg CelciusAir temperature
PressureMeteo StationPaAtmospheric pressure
HumidityMeteo Station%Relative humidity
Missing or incorrect values are displayed as -999
Metereological data collected by the RV Zeeleeuw from 2009-01-29 07:47:35 to 2009-01-29 15:43:16
Time Latitude Longitude Speed Direction Temperature Pressure Humidity
2009-01-29 07:48 51°13.678 2°55.906 -999 -999 -999 -999 -999
2009-01-29 07:49 51°13.697 2°55.816 -999 -999 -999 -999 -999
2009-01-29 07:50 51°13.707 2°55.758 -999 -999 -999 -999 -999
2009-01-29 07:51 51°13.705 2°55.758 -999 -999 -999 -999 -999
2009-01-29 07:52 51°13.738 2°55.725 -999 -999 -999 -999 -999
2009-01-29 07:53 51°13.845 2°55.629 -999 -999 -999 -999 -999
2009-01-29 07:54 51°13.976 2°55.53 -999 -999 -999 -999 -999
2009-01-29 07:55 51°14.109 2°55.426 -999 -999 -999 -999 -999
2009-01-29 07:56 51°14.232 2°55.298 -999 -999 -999 -999 -999
2009-01-29 07:57 51°14.338 2°55.126 -999 -999 -999 -999 -999
2009-01-29 07:58 51°14.44 2°54.931 -999 -999 -999 -999 -999
2009-01-29 07:59 51°14.574 2°54.777 -999 -999 -999 -999 -999
2009-01-29 08:00 51°14.716 2°54.617 -999 -999 -999 -999 -999
2009-01-29 08:01 51°14.871 2°54.443 -999 -999 -999 -999 -999
2009-01-29 08:02 51°15.025 2°54.259 -999 -999 -999 -999 -999
2009-01-29 08:03 51°15.183 2°54.075 -999 -999 -999 -999 -999
2009-01-29 08:04 51°15.354 2°53.915 -999 -999 -999 -999 -999
2009-01-29 08:05 51°15.527 2°53.75 -999 -999 -999 -999 -999
2009-01-29 08:06 51°15.703 2°53.597 -999 -999 -999 -999 -999
2009-01-29 08:07 51°15.877 2°53.433 -999 -999 -999 -999 -999
2009-01-29 08:08 51°16.051 2°53.273 -999 -999 -999 -999 -999
2009-01-29 08:09 51°16.229 2°53.128 -999 -999 -999 -999 -999
2009-01-29 08:10 51°16.408 2°52.984 -999 -999 -999 -999 -999
2009-01-29 08:11 51°16.586 2°52.846 -999 -999 -999 -999 -999
2009-01-29 08:12 51°16.765 2°52.715 -999 -999 -999 -999 -999
2009-01-29 08:13 51°16.942 2°52.587 -999 -999 -999 -999 -999
2009-01-29 08:14 51°17.119 2°52.458 -999 -999 -999 -999 -999
2009-01-29 08:15 51°17.289 2°52.304 -999 -999 -999 -999 -999
2009-01-29 08:16 51°17.438 2°52.09 -999 -999 -999 -999 -999
2009-01-29 08:17 51°17.582 2°51.864 -999 -999 -999 -999 -999
2009-01-29 08:18 51°17.721 2°51.636 -999 -999 -999 -999 -999
2009-01-29 08:19 51°17.864 2°51.411 -999 -999 -999 -999 -999
2009-01-29 08:20 51°18.008 2°51.182 -999 -999 -999 -999 -999
2009-01-29 08:21 51°18.154 2°50.953 -999 -999 -999 -999 -999
2009-01-29 08:22 51°18.303 2°50.729 -999 -999 -999 -999 -999
2009-01-29 08:23 51°18.453 2°50.503 -999 -999 -999 -999 -999
2009-01-29 08:24 51°18.6 2°50.272 -999 -999 -999 -999 -999
2009-01-29 08:25 51°18.75 2°50.046 -999 -999 -999 -999 -999
2009-01-29 08:26 51°18.899 2°49.817 -999 -999 -999 -999 -999
2009-01-29 08:27 51°19.046 2°49.585 -999 -999 -999 -999 -999
2009-01-29 08:28 51°19.2 2°49.359 -999 -999 -999 -999 -999
2009-01-29 08:29 51°19.356 2°49.136 -999 -999 -999 -999 -999
2009-01-29 08:30 51°19.516 2°48.92 -999 -999 -999 -999 -999
2009-01-29 08:31 51°19.674 2°48.7 -999 -999 -999 -999 -999
2009-01-29 08:32 51°19.828 2°48.473 -999 -999 -999 -999 -999
2009-01-29 08:33 51°19.978 2°48.242 -999 -999 -999 -999 -999
2009-01-29 08:34 51°20.132 2°48.019 -999 -999 -999 -999 -999
2009-01-29 08:35 51°20.292 2°47.806 -999 -999 -999 -999 -999
2009-01-29 08:36 51°20.455 2°47.589 -999 -999 -999 -999 -999
2009-01-29 08:37 51°20.614 2°47.363 -999 -999 -999 -999 -999
2009-01-29 08:38 51°20.772 2°47.128 -999 -999 -999 -999 -999
2009-01-29 08:39 51°20.95 2°46.956 -999 -999 -999 -999 -999
2009-01-29 08:40 51°21.148 2°46.886 -999 -999 -999 -999 -999
2009-01-29 08:41 51°21.347 2°46.824 -999 -999 -999 -999 -999
2009-01-29 08:42 51°21.545 2°46.785 -999 -999 -999 -999 -999
2009-01-29 08:43 51°21.743 2°46.743 -999 -999 -999 -999 -999
2009-01-29 08:44 51°21.919 2°46.57 -999 -999 -999 -999 -999
2009-01-29 08:45 51°22.061 2°46.311 -999 -999 -999 -999 -999
2009-01-29 08:46 51°22.199 2°46.05 -999 -999 -999 -999 -999
2009-01-29 08:47 51°22.341 2°45.796 -999 -999 -999 -999 -999
2009-01-29 08:48 51°22.483 2°45.549 -999 -999 -999 -999 -999
2009-01-29 08:49 51°22.62 2°45.292 -999 -999 -999 -999 -999
2009-01-29 08:50 51°22.757 2°45.033 -999 -999 -999 -999 -999
2009-01-29 08:51 51°22.899 2°44.781 -999 -999 -999 -999 -999
2009-01-29 08:52 51°23.042 2°44.53 -999 -999 -999 -999 -999
2009-01-29 08:53 51°23.185 2°44.283 -999 -999 -999 -999 -999
2009-01-29 08:54 51°23.327 2°44.035 -999 -999 -999 -999 -999
2009-01-29 08:55 51°23.465 2°43.779 -999 -999 -999 -999 -999
2009-01-29 08:56 51°23.601 2°43.52 -999 -999 -999 -999 -999
2009-01-29 08:57 51°23.739 2°43.266 -999 -999 -999 -999 -999
2009-01-29 08:58 51°23.881 2°43.017 -999 -999 -999 -999 -999
2009-01-29 08:59 51°24.022 2°42.771 -999 -999 -999 -999 -999
2009-01-29 09:00 51°24.164 2°42.524 -999 -999 -999 -999 -999
2009-01-29 09:01 51°24.303 2°42.273 -999 -999 -999 -999 -999
2009-01-29 09:02 51°24.444 2°42.028 -999 -999 -999 -999 -999
2009-01-29 09:03 51°24.58 2°41.777 -999 -999 -999 -999 -999
2009-01-29 09:04 51°24.717 2°41.529 -999 -999 -999 -999 -999
2009-01-29 09:05 51°24.847 2°41.27 -999 -999 -999 -999 -999
2009-01-29 09:06 51°24.974 2°41.007 -999 -999 -999 -999 -999
2009-01-29 09:07 51°25.101 2°40.741 -999 -999 -999 -999 -999
2009-01-29 09:08 51°25.226 2°40.474 -999 -999 -999 -999 -999
2009-01-29 09:09 51°25.351 2°40.208 -999 -999 -999 -999 -999
2009-01-29 09:10 51°25.482 2°39.951 -999 -999 -999 -999 -999
2009-01-29 09:11 51°25.627 2°39.716 -999 -999 -999 -999 -999
2009-01-29 09:12 51°25.776 2°39.493 -999 -999 -999 -999 -999
2009-01-29 09:13 51°25.932 2°39.282 -999 -999 -999 -999 -999
2009-01-29 09:14 51°26.088 2°39.075 -999 -999 -999 -999 -999
2009-01-29 09:15 51°26.246 2°38.869 -999 -999 -999 -999 -999
2009-01-29 09:16 51°26.398 2°38.653 -999 -999 -999 -999 -999
2009-01-29 09:17 51°26.551 2°38.44 -999 -999 -999 -999 -999
2009-01-29 09:18 51°26.7 2°38.22 -999 -999 -999 -999 -999
2009-01-29 09:19 51°26.847 2°37.998 -999 -999 -999 -999 -999
2009-01-29 09:20 51°26.998 2°37.783 -999 -999 -999 -999 -999
2009-01-29 09:21 51°27.145 2°37.561 -999 -999 -999 -999 -999
2009-01-29 09:22 51°27.293 2°37.343 -999 -999 -999 -999 -999
2009-01-29 09:23 51°27.436 2°37.113 -999 -999 -999 -999 -999
2009-01-29 09:24 51°27.585 2°36.895 -999 -999 -999 -999 -999
2009-01-29 09:25 51°27.739 2°36.683 -999 -999 -999 -999 -999
2009-01-29 09:26 51°27.888 2°36.46 -999 -999 -999 -999 -999
2009-01-29 09:27 51°28.039 2°36.236 -999 -999 -999 -999 -999
2009-01-29 09:28 51°28.194 2°36.026 -999 -999 -999 -999 -999
2009-01-29 09:29 51°28.354 2°35.825 -999 -999 -999 -999 -999
2009-01-29 09:30 51°28.536 2°35.76 -999 -999 -999 -999 -999
2009-01-29 09:31 51°28.722 2°35.762 -999 -999 -999 -999 -999
2009-01-29 09:32 51°28.902 2°35.796 -999 -999 -999 -999 -999
2009-01-29 09:33 51°29.074 2°35.886 -999 -999 -999 -999 -999
2009-01-29 09:34 51°29.249 2°35.961 -999 -999 -999 -999 -999
2009-01-29 09:35 51°29.43 2°36.008 -999 -999 -999 -999 -999
2009-01-29 09:36 51°29.611 2°36.051 -999 -999 -999 -999 -999
2009-01-29 09:37 51°29.793 2°36.095 -999 -999 -999 -999 -999
2009-01-29 09:38 51°29.975 2°36.132 -999 -999 -999 -999 -999
2009-01-29 09:39 51°30.155 2°36.185 -999 -999 -999 -999 -999
2009-01-29 09:40 51°30.332 2°36.256 -999 -999 -999 -999 -999
2009-01-29 09:41 51°30.502 2°36.356 -999 -999 -999 -999 -999
2009-01-29 09:42 51°30.669 2°36.472 -999 -999 -999 -999 -999
2009-01-29 09:43 51°30.833 2°36.593 -999 -999 -999 -999 -999
2009-01-29 09:44 51°31 2°36.713 -999 -999 -999 -999 -999
2009-01-29 09:45 51°31.169 2°36.822 -999 -999 -999 -999 -999
2009-01-29 09:46 51°31.344 2°36.91 -999 -999 -999 -999 -999
2009-01-29 09:47 51°31.52 2°36.992 -999 -999 -999 -999 -999
2009-01-29 09:48 51°31.695 2°37.078 -999 -999 -999 -999 -999
2009-01-29 09:49 51°31.869 2°37.168 -999 -999 -999 -999 -999
2009-01-29 09:50 51°32.004 2°37.238 -999 -999 -999 -999 -999
2009-01-29 09:51 51°32.113 2°37.29 -999 -999 -999 -999 -999
2009-01-29 09:52 51°32.279 2°37.373 -999 -999 -999 -999 -999
2009-01-29 09:53 51°32.453 2°37.464 -999 -999 -999 -999 -999
2009-01-29 09:54 51°32.625 2°37.555 -999 -999 -999 -999 -999
2009-01-29 09:55 51°32.801 2°37.638 -999 -999 -999 -999 -999
2009-01-29 09:56 51°32.972 2°37.734 -999 -999 -999 -999 -999
2009-01-29 09:57 51°33.146 2°37.825 -999 -999 -999 -999 -999
2009-01-29 09:58 51°33.318 2°37.92 -999 -999 -999 -999 -999
2009-01-29 09:59 51°33.492 2°38.008 -999 -999 -999 -999 -999
2009-01-29 10:00 51°33.668 2°38.097 -999 -999 -999 -999 -999
2009-01-29 10:01 51°33.843 2°38.181 -999 -999 -999 -999 -999
2009-01-29 10:02 51°34.016 2°38.276 -999 -999 -999 -999 -999
2009-01-29 10:03 51°34.189 2°38.366 -999 -999 -999 -999 -999
2009-01-29 10:04 51°34.362 2°38.455 -999 -999 -999 -999 -999
2009-01-29 10:05 51°34.536 2°38.546 -999 -999 -999 -999 -999
2009-01-29 10:06 51°34.71 2°38.635 -999 -999 -999 -999 -999
2009-01-29 10:07 51°34.883 2°38.73 -999 -999 -999 -999 -999
2009-01-29 10:08 51°35.057 2°38.819 -999 -999 -999 -999 -999
2009-01-29 10:09 51°35.232 2°38.906 -999 -999 -999 -999 -999
2009-01-29 10:10 51°35.407 2°38.999 -999 -999 -999 -999 -999
2009-01-29 10:11 51°35.581 2°39.092 -999 -999 -999 -999 -999
2009-01-29 10:12 51°35.754 2°39.191 -999 -999 -999 -999 -999
2009-01-29 10:13 51°35.929 2°39.282 -999 -999 -999 -999 -999
2009-01-29 10:14 51°36.104 2°39.377 -999 -999 -999 -999 -999
2009-01-29 10:15 51°36.28 2°39.467 -999 -999 -999 -999 -999
2009-01-29 10:16 51°36.454 2°39.564 -999 -999 -999 -999 -999
2009-01-29 10:17 51°36.627 2°39.661 -999 -999 -999 -999 -999
2009-01-29 10:18 51°36.801 2°39.757 -999 -999 -999 -999 -999
2009-01-29 10:19 51°36.977 2°39.847 -999 -999 -999 -999 -999
2009-01-29 10:20 51°37.152 2°39.941 -999 -999 -999 -999 -999
2009-01-29 10:21 51°37.327 2°40.031 -999 -999 -999 -999 -999
2009-01-29 10:22 51°37.5 2°40.12 -999 -999 -999 -999 -999
2009-01-29 10:23 51°37.675 2°40.204 -999 -999 -999 -999 -999
2009-01-29 10:24 51°37.849 2°40.293 -999 -999 -999 -999 -999
2009-01-29 10:25 51°38.024 2°40.375 -999 -999 -999 -999 -999
2009-01-29 10:26 51°38.196 2°40.466 -999 -999 -999 -999 -999
2009-01-29 10:27 51°38.367 2°40.563 -999 -999 -999 -999 -999
2009-01-29 10:28 51°38.539 2°40.653 -999 -999 -999 -999 -999
2009-01-29 10:29 51°38.708 2°40.741 -999 -999 -999 -999 -999
2009-01-29 10:30 51°38.88 2°40.828 -999 -999 -999 -999 -999
2009-01-29 10:31 51°39.053 2°40.909 -999 -999 -999 -999 -999
2009-01-29 10:32 51°39.225 2°40.993 -999 -999 -999 -999 -999
2009-01-29 10:33 51°39.398 2°41.074 -999 -999 -999 -999 -999
2009-01-29 10:34 51°39.571 2°41.151 -999 -999 -999 -999 -999
2009-01-29 10:35 51°39.741 2°41.233 -999 -999 -999 -999 -999
2009-01-29 10:36 51°39.91 2°41.324 -999 -999 -999 -999 -999
2009-01-29 10:37 51°40.081 2°41.417 -999 -999 -999 -999 -999
2009-01-29 10:38 51°40.255 2°41.502 -999 -999 -999 -999 -999
2009-01-29 10:39 51°40.428 2°41.589 -999 -999 -999 -999 -999
2009-01-29 10:40 51°40.601 2°41.671 -999 -999 -999 -999 -999
2009-01-29 10:41 51°40.772 2°41.758 -999 -999 -999 -999 -999
2009-01-29 10:42 51°40.943 2°41.845 -999 -999 -999 -999 -999
2009-01-29 10:43 51°41.115 2°41.934 -999 -999 -999 -999 -999
2009-01-29 10:44 51°41.288 2°42.016 -999 -999 -999 -999 -999
2009-01-29 10:45 51°41.457 2°42.101 -999 -999 -999 -999 -999
2009-01-29 10:46 51°41.628 2°42.188 -999 -999 -999 -999 -999
2009-01-29 10:47 51°41.798 2°42.281 -999 -999 -999 -999 -999
2009-01-29 10:48 51°41.969 2°42.375 -999 -999 -999 -999 -999
2009-01-29 10:49 51°42.142 2°42.47 -999 -999 -999 -999 -999
2009-01-29 10:50 51°42.313 2°42.561 -999 -999 -999 -999 -999
2009-01-29 10:51 51°42.485 2°42.651 -999 -999 -999 -999 -999
2009-01-29 10:52 51°42.656 2°42.74 -999 -999 -999 -999 -999
2009-01-29 10:53 51°42.825 2°42.833 -999 -999 -999 -999 -999
2009-01-29 10:54 51°42.997 2°42.919 -999 -999 -999 -999 -999
2009-01-29 10:55 51°43.166 2°43.024 -999 -999 -999 -999 -999
2009-01-29 10:56 51°43.33 2°43.139 -999 -999 -999 -999 -999
2009-01-29 10:57 51°43.493 2°43.258 -999 -999 -999 -999 -999
2009-01-29 10:58 51°43.655 2°43.387 -999 -999 -999 -999 -999
2009-01-29 10:59 51°43.79 2°43.577 -999 -999 -999 -999 -999
2009-01-29 11:00 51°43.837 2°43.854 -999 -999 -999 -999 -999
2009-01-29 11:01 51°43.767 2°44.137 -999 -999 -999 -999 -999
2009-01-29 11:02 51°43.636 2°44.387 -999 -999 -999 -999 -999
2009-01-29 11:03 51°43.506 2°44.639 -999 -999 -999 -999 -999
2009-01-29 11:04 51°43.375 2°44.889 -999 -999 -999 -999 -999
2009-01-29 11:05 51°43.236 2°45.133 -999 -999 -999 -999 -999
2009-01-29 11:06 51°43.104 2°45.384 -999 -999 -999 -999 -999
2009-01-29 11:07 51°42.968 2°45.631 -999 -999 -999 -999 -999
2009-01-29 11:08 51°42.835 2°45.879 -999 -999 -999 -999 -999
2009-01-29 11:09 51°42.679 2°46.088 -999 -999 -999 -999 -999
2009-01-29 11:10 51°42.467 2°46.06 -999 -999 -999 -999 -999
2009-01-29 11:11 51°42.254 2°45.938 -999 -999 -999 -999 -999
2009-01-29 11:12 51°42.043 2°45.806 -999 -999 -999 -999 -999
2009-01-29 11:13 51°41.829 2°45.678 -999 -999 -999 -999 -999
2009-01-29 11:14 51°41.616 2°45.551 -999 -999 -999 -999 -999
2009-01-29 11:15 51°41.404 2°45.425 -999 -999 -999 -999 -999
2009-01-29 11:16 51°41.193 2°45.285 -999 -999 -999 -999 -999
2009-01-29 11:17 51°40.982 2°45.148 -999 -999 -999 -999 -999
2009-01-29 11:18 51°40.771 2°45.013 -999 -999 -999 -999 -999
2009-01-29 11:19 51°40.561 2°44.874 -999 -999 -999 -999 -999
2009-01-29 11:20 51°40.35 2°44.74 -999 -999 -999 -999 -999
2009-01-29 11:21 51°40.138 2°44.601 -999 -999 -999 -999 -999
2009-01-29 11:22 51°39.924 2°44.472 -999 -999 -999 -999 -999
2009-01-29 11:23 51°39.713 2°44.336 -999 -999 -999 -999 -999
2009-01-29 11:24 51°39.503 2°44.194 -999 -999 -999 -999 -999
2009-01-29 11:25 51°39.292 2°44.063 -999 -999 -999 -999 -999
2009-01-29 11:26 51°39.08 2°43.931 -999 -999 -999 -999 -999
2009-01-29 11:27 51°38.872 2°43.786 -999 -999 -999 -999 -999
2009-01-29 11:28 51°38.661 2°43.648 -999 -999 -999 -999 -999
2009-01-29 11:29 51°38.448 2°43.517 -999 -999 -999 -999 -999
2009-01-29 11:30 51°38.235 2°43.387 -999 -999 -999 -999 -999
2009-01-29 11:31 51°38.025 2°43.245 -999 -999 -999 -999 -999
2009-01-29 11:32 51°37.813 2°43.115 -999 -999 -999 -999 -999
2009-01-29 11:33 51°37.602 2°42.981 -999 -999 -999 -999 -999
2009-01-29 11:34 51°37.392 2°42.839 -999 -999 -999 -999 -999
2009-01-29 11:35 51°37.182 2°42.699 -999 -999 -999 -999 -999
2009-01-29 11:36 51°36.971 2°42.56 -999 -999 -999 -999 -999
2009-01-29 11:37 51°36.762 2°42.425 -999 -999 -999 -999 -999
2009-01-29 11:38 51°36.553 2°42.287 -999 -999 -999 -999 -999
2009-01-29 11:39 51°36.345 2°42.15 -999 -999 -999 -999 -999
2009-01-29 11:40 51°36.135 2°42.02 -999 -999 -999 -999 -999
2009-01-29 11:41 51°35.926 2°41.885 -999 -999 -999 -999 -999
2009-01-29 11:42 51°35.717 2°41.754 -999 -999 -999 -999 -999
2009-01-29 11:43 51°35.509 2°41.615 -999 -999 -999 -999 -999
2009-01-29 11:44 51°35.3 2°41.477 -999 -999 -999 -999 -999
2009-01-29 11:45 51°35.09 2°41.341 -999 -999 -999 -999 -999
2009-01-29 11:46 51°34.879 2°41.208 -999 -999 -999 -999 -999
2009-01-29 11:47 51°34.668 2°41.076 -999 -999 -999 -999 -999
2009-01-29 11:48 51°34.456 2°40.954 -999 -999 -999 -999 -999
2009-01-29 11:49 51°34.246 2°40.816 -999 -999 -999 -999 -999
2009-01-29 11:50 51°34.035 2°40.679 -999 -999 -999 -999 -999
2009-01-29 11:51 51°33.825 2°40.547 -999 -999 -999 -999 -999
2009-01-29 11:52 51°33.615 2°40.406 -999 -999 -999 -999 -999
2009-01-29 11:53 51°33.405 2°40.267 -999 -999 -999 -999 -999
2009-01-29 11:54 51°33.193 2°40.139 -999 -999 -999 -999 -999
2009-01-29 11:55 51°32.98 2°40.013 -999 -999 -999 -999 -999
2009-01-29 11:56 51°32.766 2°39.894 -999 -999 -999 -999 -999
2009-01-29 11:57 51°32.554 2°39.771 -999 -999 -999 -999 -999
2009-01-29 11:58 51°32.344 2°39.649 -999 -999 -999 -999 -999
2009-01-29 11:59 51°32.132 2°39.56 -999 -999 -999 -999 -999
2009-01-29 12:00 51°31.97 2°39.734 -999 -999 -999 -999 -999
2009-01-29 12:01 51°31.951 2°40.04 -999 -999 -999 -999 -999
2009-01-29 12:02 51°31.96 2°40.353 -999 -999 -999 -999 -999
2009-01-29 12:03 51°31.988 2°40.664 -999 -999 -999 -999 -999
2009-01-29 12:04 51°32.019 2°40.978 -999 -999 -999 -999 -999
2009-01-29 12:05 51°32.05 2°41.292 -999 -999 -999 -999 -999
2009-01-29 12:06 51°32.082 2°41.603 -999 -999 -999 -999 -999
2009-01-29 12:07 51°32.171 2°41.873 -999 -999 -999 -999 -999
2009-01-29 12:08 51°32.335 2°42.034 -999 -999 -999 -999 -999
2009-01-29 12:09 51°32.51 2°42.168 -999 -999 -999 -999 -999
2009-01-29 12:10 51°32.682 2°42.307 -999 -999 -999 -999 -999
2009-01-29 12:11 51°32.854 2°42.449 -999 -999 -999 -999 -999
2009-01-29 12:12 51°33.028 2°42.587 -999 -999 -999 -999 -999
2009-01-29 12:13 51°33.208 2°42.706 -999 -999 -999 -999 -999
2009-01-29 12:14 51°33.39 2°42.821 -999 -999 -999 -999 -999
2009-01-29 12:15 51°33.573 2°42.932 -999 -999 -999 -999 -999
2009-01-29 12:16 51°33.756 2°43.043 -999 -999 -999 -999 -999
2009-01-29 12:17 51°33.938 2°43.157 -999 -999 -999 -999 -999
2009-01-29 12:18 51°34.12 2°43.273 -999 -999 -999 -999 -999
2009-01-29 12:19 51°34.303 2°43.392 -999 -999 -999 -999 -999
2009-01-29 12:20 51°34.486 2°43.506 -999 -999 -999 -999 -999
2009-01-29 12:21 51°34.672 2°43.619 -999 -999 -999 -999 -999
2009-01-29 12:22 51°34.856 2°43.74 -999 -999 -999 -999 -999
2009-01-29 12:23 51°35.04 2°43.863 -999 -999 -999 -999 -999
2009-01-29 12:24 51°35.227 2°43.984 -999 -999 -999 -999 -999
2009-01-29 12:25 51°35.41 2°44.107 -999 -999 -999 -999 -999
2009-01-29 12:26 51°35.599 2°44.225 -999 -999 -999 -999 -999
2009-01-29 12:27 51°35.781 2°44.341 -999 -999 -999 -999 -999
2009-01-29 12:28 51°35.968 2°44.456 -999 -999 -999 -999 -999
2009-01-29 12:29 51°36.154 2°44.572 -999 -999 -999 -999 -999
2009-01-29 12:30 51°36.34 2°44.691 -999 -999 -999 -999 -999
2009-01-29 12:31 51°36.524 2°44.814 -999 -999 -999 -999 -999
2009-01-29 12:32 51°36.71 2°44.927 -999 -999 -999 -999 -999
2009-01-29 12:33 51°36.895 2°45.051 -999 -999 -999 -999 -999
2009-01-29 12:34 51°37.082 2°45.165 -999 -999 -999 -999 -999
2009-01-29 12:35 51°37.268 2°45.283 -999 -999 -999 -999 -999
2009-01-29 12:36 51°37.453 2°45.405 -999 -999 -999 -999 -999
2009-01-29 12:37 51°37.638 2°45.526 -999 -999 -999 -999 -999
2009-01-29 12:38 51°37.826 2°45.642 -999 -999 -999 -999 -999
2009-01-29 12:39 51°38.014 2°45.765 -999 -999 -999 -999 -999
2009-01-29 12:40 51°38.2 2°45.886 -999 -999 -999 -999 -999
2009-01-29 12:41 51°38.387 2°46.006 -999 -999 -999 -999 -999
2009-01-29 12:42 51°38.576 2°46.129 -999 -999 -999 -999 -999
2009-01-29 12:43 51°38.76 2°46.251 -999 -999 -999 -999 -999
2009-01-29 12:44 51°38.947 2°46.372 -999 -999 -999 -999 -999
2009-01-29 12:45 51°39.137 2°46.487 -999 -999 -999 -999 -999
2009-01-29 12:46 51°39.324 2°46.609 -999 -999 -999 -999 -999
2009-01-29 12:47 51°39.513 2°46.732 -999 -999 -999 -999 -999
2009-01-29 12:48 51°39.703 2°46.856 -999 -999 -999 -999 -999
2009-01-29 12:49 51°39.893 2°46.979 -999 -999 -999 -999 -999
2009-01-29 12:50 51°40.084 2°47.099 -999 -999 -999 -999 -999
2009-01-29 12:51 51°40.276 2°47.218 -999 -999 -999 -999 -999
2009-01-29 12:52 51°40.467 2°47.34 -999 -999 -999 -999 -999
2009-01-29 12:53 51°40.66 2°47.452 -999 -999 -999 -999 -999
2009-01-29 12:54 51°40.852 2°47.573 -999 -999 -999 -999 -999
2009-01-29 12:55 51°41.043 2°47.695 -999 -999 -999 -999 -999
2009-01-29 12:56 51°41.236 2°47.815 -999 -999 -999 -999 -999
2009-01-29 12:57 51°41.427 2°47.942 -999 -999 -999 -999 -999
2009-01-29 12:58 51°41.623 2°48.061 -999 -999 -999 -999 -999
2009-01-29 12:59 51°41.809 2°48.187 -999 -999 -999 -999 -999
2009-01-29 13:00 51°41.877 2°48.477 -999 -999 -999 -999 -999
2009-01-29 13:01 51°41.748 2°48.718 -999 -999 -999 -999 -999
2009-01-29 13:02 51°41.591 2°48.95 -999 -999 -999 -999 -999
2009-01-29 13:03 51°41.419 2°49.162 -999 -999 -999 -999 -999
2009-01-29 13:04 51°41.25 2°49.364 -999 -999 -999 -999 -999
2009-01-29 13:05 51°41.057 2°49.496 -999 -999 -999 -999 -999
2009-01-29 13:06 51°40.863 2°49.453 -999 -999 -999 -999 -999
2009-01-29 13:07 51°40.674 2°49.332 -999 -999 -999 -999 -999
2009-01-29 13:08 51°40.484 2°49.22 -999 -999 -999 -999 -999
2009-01-29 13:09 51°40.29 2°49.126 -999 -999 -999 -999 -999
2009-01-29 13:10 51°40.1 2°49.019 -999 -999 -999 -999 -999
2009-01-29 13:11 51°39.908 2°48.921 -999 -999 -999 -999 -999
2009-01-29 13:12 51°39.717 2°48.827 -999 -999 -999 -999 -999
2009-01-29 13:13 51°39.525 2°48.736 -999 -999 -999 -999 -999
2009-01-29 13:14 51°39.331 2°48.644 -999 -999 -999 -999 -999
2009-01-29 13:15 51°39.144 2°48.559 -999 -999 -999 -999 -999
2009-01-29 13:16 51°38.956 2°48.468 -999 -999 -999 -999 -999
2009-01-29 13:17 51°38.769 2°48.372 -999 -999 -999 -999 -999
2009-01-29 13:18 51°38.582 2°48.277 -999 -999 -999 -999 -999
2009-01-29 13:19 51°38.393 2°48.186 -999 -999 -999 -999 -999
2009-01-29 13:20 51°38.21 2°48.093 -999 -999 -999 -999 -999
2009-01-29 13:21 51°38.021 2°48.002 -999 -999 -999 -999 -999
2009-01-29 13:22 51°37.838 2°47.914 -999 -999 -999 -999 -999
2009-01-29 13:23 51°37.652 2°47.814 -999 -999 -999 -999 -999
2009-01-29 13:24 51°37.476 2°47.717 -999 -999 -999 -999 -999
2009-01-29 13:25 51°37.296 2°47.62 -999 -999 -999 -999 -999
2009-01-29 13:26 51°37.116 2°47.518 -999 -999 -999 -999 -999
2009-01-29 13:27 51°36.937 2°47.418 -999 -999 -999 -999 -999
2009-01-29 13:28 51°36.757 2°47.315 -999 -999 -999 -999 -999
2009-01-29 13:29 51°36.579 2°47.216 -999 -999 -999 -999 -999
2009-01-29 13:30 51°36.395 2°47.112 -999 -999 -999 -999 -999
2009-01-29 13:31 51°36.216 2°47.011 -999 -999 -999 -999 -999
2009-01-29 13:32 51°36.032 2°46.909 -999 -999 -999 -999 -999
2009-01-29 13:33 51°35.855 2°46.809 -999 -999 -999 -999 -999
2009-01-29 13:34 51°35.673 2°46.71 -999 -999 -999 -999 -999
2009-01-29 13:35 51°35.491 2°46.603 -999 -999 -999 -999 -999
2009-01-29 13:36 51°35.315 2°46.498 -999 -999 -999 -999 -999
2009-01-29 13:37 51°35.135 2°46.39 -999 -999 -999 -999 -999
2009-01-29 13:38 51°34.96 2°46.287 -999 -999 -999 -999 -999
2009-01-29 13:39 51°34.779 2°46.178 -999 -999 -999 -999 -999
2009-01-29 13:40 51°34.604 2°46.075 -999 -999 -999 -999 -999
2009-01-29 13:41 51°34.423 2°45.97 -999 -999 -999 -999 -999
2009-01-29 13:42 51°34.246 2°45.873 -999 -999 -999 -999 -999
2009-01-29 13:43 51°34.068 2°45.773 -999 -999 -999 -999 -999
2009-01-29 13:44 51°33.891 2°45.657 -999 -999 -999 -999 -999
2009-01-29 13:45 51°33.72 2°45.546 -999 -999 -999 -999 -999
2009-01-29 13:46 51°33.542 2°45.435 -999 -999 -999 -999 -999
2009-01-29 13:47 51°33.369 2°45.333 -999 -999 -999 -999 -999
2009-01-29 13:48 51°33.191 2°45.228 -999 -999 -999 -999 -999
2009-01-29 13:49 51°33.017 2°45.138 -999 -999 -999 -999 -999
2009-01-29 13:50 51°32.838 2°45.039 -999 -999 -999 -999 -999
2009-01-29 13:51 51°32.668 2°44.938 -999 -999 -999 -999 -999
2009-01-29 13:52 51°32.494 2°44.835 -999 -999 -999 -999 -999
2009-01-29 13:53 51°32.317 2°44.739 -999 -999 -999 -999 -999
2009-01-29 13:54 51°32.146 2°44.647 -999 -999 -999 -999 -999
2009-01-29 13:55 51°31.97 2°44.547 -999 -999 -999 -999 -999
2009-01-29 13:56 51°31.797 2°44.466 -999 -999 -999 -999 -999
2009-01-29 13:57 51°31.618 2°44.383 -999 -999 -999 -999 -999
2009-01-29 13:58 51°31.446 2°44.298 -999 -999 -999 -999 -999
2009-01-29 13:59 51°31.266 2°44.219 -999 -999 -999 -999 -999
2009-01-29 14:00 51°31.091 2°44.132 -999 -999 -999 -999 -999
2009-01-29 14:01 51°30.92 2°44.045 -999 -999 -999 -999 -999
2009-01-29 14:02 51°30.741 2°43.964 -999 -999 -999 -999 -999
2009-01-29 14:03 51°30.57 2°43.883 -999 -999 -999 -999 -999
2009-01-29 14:04 51°30.394 2°43.788 -999 -999 -999 -999 -999
2009-01-29 14:05 51°30.221 2°43.7 -999 -999 -999 -999 -999
2009-01-29 14:06 51°30.046 2°43.624 -999 -999 -999 -999 -999
2009-01-29 14:07 51°29.868 2°43.59 -999 -999 -999 -999 -999
2009-01-29 14:08 51°29.683 2°43.688 -999 -999 -999 -999 -999
2009-01-29 14:09 51°29.51 2°43.846 -999 -999 -999 -999 -999
2009-01-29 14:10 51°29.326 2°43.951 -999 -999 -999 -999 -999
2009-01-29 14:11 51°29.14 2°44.037 -999 -999 -999 -999 -999
2009-01-29 14:12 51°28.955 2°44.116 -999 -999 -999 -999 -999
2009-01-29 14:13 51°28.765 2°44.2 -999 -999 -999 -999 -999
2009-01-29 14:14 51°28.58 2°44.308 -999 -999 -999 -999 -999
2009-01-29 14:15 51°28.399 2°44.437 -999 -999 -999 -999 -999
2009-01-29 14:16 51°28.216 2°44.56 -999 -999 -999 -999 -999
2009-01-29 14:17 51°28.033 2°44.686 -999 -999 -999 -999 -999
2009-01-29 14:18 51°27.849 2°44.808 -999 -999 -999 -999 -999
2009-01-29 14:19 51°27.665 2°44.931 -999 -999 -999 -999 -999
2009-01-29 14:20 51°27.483 2°45.062 -999 -999 -999 -999 -999
2009-01-29 14:21 51°27.301 2°45.19 -999 -999 -999 -999 -999
2009-01-29 14:22 51°27.116 2°45.302 -999 -999 -999 -999 -999
2009-01-29 14:23 51°26.938 2°45.432 -999 -999 -999 -999 -999
2009-01-29 14:24 51°26.75 2°45.556 -999 -999 -999 -999 -999
2009-01-29 14:25 51°26.57 2°45.687 -999 -999 -999 -999 -999
2009-01-29 14:26 51°26.39 2°45.824 -999 -999 -999 -999 -999
2009-01-29 14:27 51°26.211 2°45.961 -999 -999 -999 -999 -999
2009-01-29 14:28 51°26.034 2°46.091 -999 -999 -999 -999 -999
2009-01-29 14:29 51°25.853 2°46.23 -999 -999 -999 -999 -999
2009-01-29 14:30 51°25.676 2°46.366 -999 -999 -999 -999 -999
2009-01-29 14:31 51°25.496 2°46.502 -999 -999 -999 -999 -999
2009-01-29 14:32 51°25.32 2°46.635 -999 -999 -999 -999 -999
2009-01-29 14:33 51°25.138 2°46.776 -999 -999 -999 -999 -999
2009-01-29 14:34 51°24.961 2°46.919 -999 -999 -999 -999 -999
2009-01-29 14:35 51°24.786 2°47.068 -999 -999 -999 -999 -999
2009-01-29 14:36 51°24.605 2°47.19 -999 -999 -999 -999 -999
2009-01-29 14:37 51°24.423 2°47.309 -999 -999 -999 -999 -999
2009-01-29 14:38 51°24.243 2°47.428 -999 -999 -999 -999 -999
2009-01-29 14:39 51°24.066 2°47.546 -999 -999 -999 -999 -999
2009-01-29 14:40 51°23.882 2°47.669 -999 -999 -999 -999 -999
2009-01-29 14:41 51°23.701 2°47.796 -999 -999 -999 -999 -999
2009-01-29 14:42 51°23.52 2°47.925 -999 -999 -999 -999 -999
2009-01-29 14:43 51°23.34 2°48.063 -999 -999 -999 -999 -999
2009-01-29 14:44 51°23.159 2°48.196 -999 -999 -999 -999 -999
2009-01-29 14:45 51°22.979 2°48.326 -999 -999 -999 -999 -999
2009-01-29 14:46 51°22.804 2°48.464 -999 -999 -999 -999 -999
2009-01-29 14:47 51°22.63 2°48.609 -999 -999 -999 -999 -999
2009-01-29 14:48 51°22.454 2°48.744 -999 -999 -999 -999 -999
2009-01-29 14:49 51°22.274 2°48.864 -999 -999 -999 -999 -999
2009-01-29 14:50 51°22.094 2°48.99 -999 -999 -999 -999 -999
2009-01-29 14:51 51°21.913 2°49.114 -999 -999 -999 -999 -999
2009-01-29 14:52 51°21.731 2°49.237 -999 -999 -999 -999 -999
2009-01-29 14:53 51°21.546 2°49.348 -999 -999 -999 -999 -999
2009-01-29 14:54 51°21.364 2°49.479 -999 -999 -999 -999 -999
2009-01-29 14:55 51°21.185 2°49.619 -999 -999 -999 -999 -999
2009-01-29 14:56 51°21.008 2°49.755 -999 -999 -999 -999 -999
2009-01-29 14:57 51°20.832 2°49.885 -999 -999 -999 -999 -999
2009-01-29 14:58 51°20.658 2°50.017 -999 -999 -999 -999 -999
2009-01-29 14:59 51°20.479 2°50.135 -999 -999 -999 -999 -999
2009-01-29 15:00 51°20.296 2°50.254 -999 -999 -999 -999 -999
2009-01-29 15:01 51°20.114 2°50.375 -999 -999 -999 -999 -999
2009-01-29 15:02 51°19.934 2°50.5 -999 -999 -999 -999 -999
2009-01-29 15:03 51°19.752 2°50.62 -999 -999 -999 -999 -999
2009-01-29 15:04 51°19.572 2°50.746 -999 -999 -999 -999 -999
2009-01-29 15:05 51°19.388 2°50.863 -999 -999 -999 -999 -999
2009-01-29 15:06 51°19.207 2°50.987 -999 -999 -999 -999 -999
2009-01-29 15:07 51°19.025 2°51.102 -999 -999 -999 -999 -999
2009-01-29 15:08 51°18.845 2°51.217 -999 -999 -999 -999 -999
2009-01-29 15:09 51°18.665 2°51.329 -999 -999 -999 -999 -999
2009-01-29 15:10 51°18.486 2°51.447 -999 -999 -999 -999 -999
2009-01-29 15:11 51°18.307 2°51.57 -999 -999 -999 -999 -999
2009-01-29 15:12 51°18.132 2°51.7 -999 -999 -999 -999 -999
2009-01-29 15:13 51°17.957 2°51.83 -999 -999 -999 -999 -999
2009-01-29 15:14 51°17.779 2°51.945 -999 -999 -999 -999 -999
2009-01-29 15:15 51°17.603 2°52.064 -999 -999 -999 -999 -999
2009-01-29 15:16 51°17.427 2°52.188 -999 -999 -999 -999 -999
2009-01-29 15:17 51°17.253 2°52.323 -999 -999 -999 -999 -999
2009-01-29 15:18 51°17.082 2°52.465 -999 -999 -999 -999 -999
2009-01-29 15:19 51°16.91 2°52.613 -999 -999 -999 -999 -999
2009-01-29 15:20 51°16.737 2°52.749 -999 -999 -999 -999 -999
2009-01-29 15:21 51°16.558 2°52.867 -999 -999 -999 -999 -999
2009-01-29 15:22 51°16.383 2°53.002 -999 -999 -999 -999 -999
2009-01-29 15:23 51°16.217 2°53.17 -999 -999 -999 -999 -999
2009-01-29 15:24 51°16.054 2°53.348 -999 -999 -999 -999 -999
2009-01-29 15:25 51°15.878 2°53.481 -999 -999 -999 -999 -999
2009-01-29 15:26 51°15.693 2°53.565 -999 -999 -999 -999 -999
2009-01-29 15:27 51°15.507 2°53.652 -999 -999 -999 -999 -999
2009-01-29 15:28 51°15.323 2°53.74 -999 -999 -999 -999 -999
2009-01-29 15:29 51°15.138 2°53.826 -999 -999 -999 -999 -999
2009-01-29 15:30 51°14.964 2°53.971 -999 -999 -999 -999 -999
2009-01-29 15:31 51°14.814 2°54.181 -999 -999 -999 -999 -999
2009-01-29 15:32 51°14.682 2°54.428 -999 -999 -999 -999 -999
2009-01-29 15:33 51°14.547 2°54.676 -999 -999 -999 -999 -999
2009-01-29 15:34 51°14.422 2°54.939 -999 -999 -999 -999 -999
2009-01-29 15:35 51°14.297 2°55.186 -999 -999 -999 -999 -999
2009-01-29 15:36 51°14.181 2°55.364 -999 -999 -999 -999 -999
2009-01-29 15:37 51°14.055 2°55.464 -999 -999 -999 -999 -999
2009-01-29 15:38 51°13.931 2°55.553 -999 -999 -999 -999 -999
2009-01-29 15:39 51°13.81 2°55.647 -999 -999 -999 -999 -999
2009-01-29 15:40 51°13.726 2°55.769 -999 -999 -999 -999 -999
2009-01-29 15:41 51°13.676 2°55.884 -999 -999 -999 -999 -999
2009-01-29 15:42 51°13.662 2°55.955 -999 -999 -999 -999 -999